Regional Weather Roundup
Issued by NWS

Home | Current Version | Previous Version | Text Only | Print | Product List | Glossary On
Versions: 1 2 3 4 5 6 7 8 9 10 11 12 13 14 15 16 17 18 19 20 21 22 23 24 25 26 27 28 29 30 31 32 33 34 35 36 37 38 39 40 41 42 43 44 45 46 47 48 49 50
000
ASUS44 KFWD 200001
RWRTX
NORTH TEXAS HOURLY WEATHER ROUNDUP
NATIONAL WEATHER SERVICE FORT WORTH TX
600 PM CST SUN FEB 19 2017

NOTE: "FAIR" INDICATES FEW OR NO CLOUDS BELOW 12,000 FEET WITH NO
SIGNIFICANT WEATHER AND/OR OBSTRUCTIONS TO VISIBILITY.

TXZ118-119-200100-
DALLAS/FORT WORTH METROPLEX

CITY           SKY/WX    TMP DP  RH WIND       PRES   REMARKS
DFW AIRPORT    CLOUDY    75  66  73 SE21      29.80F
6HR MIN TEMP:  71; 6HR MAX TEMP:  77;

DALLAS LOVE    CLOUDY    75  65  70 SE23G29   29.82F
6HR MIN TEMP:  72; 6HR MAX TEMP:  77; 6HR PCP: TRACE;

FTW MEACHAM    CLOUDY    74  64  71 SE16G22   29.80F
6HR MIN TEMP:  70; 6HR MAX TEMP:  76; 6HR PCP: TRACE;

DAL-EXECUTIVE  CLOUDY    73  66  78 SE18G25   29.81F
6HR MIN TEMP:  70; 6HR MAX TEMP:  75; 6HR PCP: TRACE;

FTW-ALLIANCE   MOCLDY    73  64  73 SE13G22   29.80F
6HR MIN TEMP:  68; 6HR MAX TEMP:  75; 6HR PCP: TRACE;

FTW-NAS-JRB    MOCLDY    74  65  73 SE14G21   29.81S
6HR MIN TEMP:  71; 6HR MAX TEMP:  76; 6HR PCP: TRACE;

FTW-SPINKS     MOCLDY    73  66  78 E12G21    29.82F
ARLINGTON      MOCLDY    73  65  75 E15       29.81F
6HR MIN TEMP:  71; 6HR MAX TEMP:  76;

GRAND PRAIRIE  PTCLDY    73  64  73 E12G23    29.83F
MESQUITE       MOCLDY    72  64  78 SE14G25   29.86S
LANCASTER      MOCLDY    72  65  78 SE16G23   29.84F
6HR MIN TEMP:  71; 6HR MAX TEMP:  75;

$$

TXZ091>094-102>105-117-120-121-131>134-200100-
NORTH CENTRAL TEXAS

CITY           SKY/WX    TMP DP  RH WIND       PRES   REMARKS
SHRMAN/DENISON CLOUDY    71  64  78 SE14G21   29.86R
6HR MIN TEMP:  65; 6HR MAX TEMP:  71;

GAINESVILLE    CLOUDY    69  63  82 SE13G18   29.85S
6HR MIN TEMP:  64; 6HR MAX TEMP:  69;

BOWIE          MOCLDY    70  65  85 SE7       29.82S HAZE
6HR MIN TEMP:  65; 6HR MAX TEMP:  72;

BRIDGEPORT     CLOUDY    70  64  79 E7        29.81F
6HR MIN TEMP:  66; 6HR MAX TEMP:  73;

DECATUR        CLOUDY    70  65  84 SE8       29.82R HAZE
6HR MIN TEMP:  64; 6HR MAX TEMP:  71;

DENTON         MOCLDY    72  65  78 SE10      29.81F
6HR MIN TEMP:  67; 6HR MAX TEMP:  74;

MCKINNEY       CLOUDY    72  66  81 SE14      29.85S
6HR MIN TEMP:  68; 6HR MAX TEMP:  73;

BONHAM         CLOUDY    68  63  83 E8        29.87F
ROCKWALL       CLOUDY    72  66  79 SE10G18   29.86S
6HR MIN TEMP:  71; 6HR MAX TEMP:  75;

TERRELL        MOCLDY    73  64  73 SE16G24   29.87R
6HR MIN TEMP:  72; 6HR MAX TEMP:  76;

WAXAHACHIE     CLOUDY    72  66  82 SE12G17   29.84S
6HR MIN TEMP:  70; 6HR MAX TEMP:  76;

CLEBURNE       MOCLDY    75  68  78 E16G22    29.81F
GRANBURY       CLOUDY    75  64  69 SE13      29.80S
6HR MIN TEMP:  73; 6HR MAX TEMP:  75;

$$

TXZ083>090-098>101-113>116-127>130-139>142-154-155-200100-
WESTERN NORTH TEXAS

CITY           SKY/WX    TMP DP  RH WIND       PRES   REMARKS
WICHITA FALLS  CLOUDY    69  63  81 SE13      29.78S
6HR MIN TEMP:  68; 6HR MAX TEMP:  73; 6HR PCP:  0.04;

WF-KICKAPOO    CLOUDY    70  64  81 SE15      29.80R
6HR MIN TEMP:  69; 6HR MAX TEMP:  73;

VERNON         CLOUDY    67  61  81 SE3       29.79S
ABILENE        LGT RAIN  62  57  83 NW13      29.79R
6HR MIN TEMP:  62; 6HR MAX TEMP:  73; 6HR PCP:  0.01;

ABILENE-DYESS  LGT RAIN  63  55  77 E15G38    29.78R
GRAHAM         HVY RAIN  67  67 100 E12G21    29.77F
6HR MIN TEMP:  67; 6HR MAX TEMP:  76; 6HR PCP:  0.17;

CISCO          MOCLDY    63  61  94 SE8       29.78F
RANGER         CLOUDY    70  63  78 SE10      29.78F
MINERAL WELLS  TSTM      71  64  78 SE9       29.77S
6HR MIN TEMP:  71; 6HR MAX TEMP:  74; 6HR PCP: TRACE;

STEPHENVILLE   MOCLDY    73  64  71 SE8       29.82F
6HR MIN TEMP:  71; 6HR MAX TEMP:  76;

COMANCHE       MOCLDY    74  63  69 S13G18    29.79S
6HR MIN TEMP:  69; 6HR MAX TEMP:  77;

BROWNWOOD      MOCLDY    73  63  68 SE9       29.78S
COLEMAN        PTCLDY    70  62  75 E3        29.77F
6HR MIN TEMP:  69; 6HR MAX TEMP:  76;

$$

TXZ143>147-156>162-174-175-200100-
CENTRAL TEXAS

CITY           SKY/WX    TMP DP  RH WIND       PRES   REMARKS
WACO           LGT RAIN  75  66  73 SE22G29   29.80F
6HR MIN TEMP:  74; 6HR MAX TEMP:  80; 6HR PCP: TRACE;

WACO-TSTC      PTCLDY    75  66  73 SE12G21   29.81F
WACO-MCGREGOR  CLOUDY    74  67  78 SE16      29.80F
6HR MIN TEMP:  74; 6HR MAX TEMP:  79;

HILLSBORO      CLOUDY    74  67  77 E14G20    29.81F
6HR MIN TEMP:  73; 6HR MAX TEMP:  78;

CORSICANA      CLOUDY    73  66  78 SE13      29.87S
6HR MIN TEMP:  72; 6HR MAX TEMP:  77; 6HR PCP: TRACE;

MEXIA          CLOUDY    73  65  76 SE10G17   29.84S
6HR MIN TEMP:  73; 6HR MAX TEMP:  78;

HEARNE         CLOUDY    76  66  71 SE10G17   29.85S
6HR MIN TEMP:  76; 6HR MAX TEMP:  80;

CAMERON        CLOUDY    76  66  72 SE12G17   29.83S
6HR MIN TEMP:  76; 6HR MAX TEMP:  81;

TEMPLE         PTCLDY    75  66  73 SE18      29.82S
6HR MIN TEMP:  74; 6HR MAX TEMP:  81;

KILLEEN        MOCLDY    74  65  73 SE18      29.80R
6HR MIN TEMP:  73; 6HR MAX TEMP:  79;

KILLEEN-SKYLRK CLOUDY    75  66  73 SE17      29.81S
6HR MIN TEMP:  74; 6HR MAX TEMP:  80; 6HR PCP: TRACE;

HAMILTON       CLOUDY    75  64  67 S16G22    29.81R
6HR MIN TEMP:  72; 6HR MAX TEMP:  78;

LAMPASAS       CLOUDY    76  68  77 SE9       29.81R
6HR MIN TEMP:  73; 6HR MAX TEMP:  78;

$$

TXZ095>097-106>112-122>126-135>138-148>153-164>167-200100-
EAST TEXAS

CITY           SKY/WX    TMP DP  RH WIND       PRES   REMARKS
PARIS          MOCLDY    70  61  73 E13       29.90F
6HR MIN TEMP:  63; 6HR MAX TEMP:  72;

SULPHUR SPRNGS MOCLDY    73  64  71 SE10      29.91S
6HR MIN TEMP:  71; 6HR MAX TEMP:  77;

MOUNT PLEASANT CLEAR     73  62  69 SE6       29.92F
6HR MIN TEMP:  72; 6HR MAX TEMP:  77;

GILMER         MOCLDY    72  64  76 SE3       29.91F
6HR MIN TEMP:  72; 6HR MAX TEMP:  76;

MINEOLA        PTCLDY    72  64  78 SE10      29.89F
TYLER          MOCLDY    72  65  78 SE12      29.90S FOG
6HR MIN TEMP:  72; 6HR MAX TEMP:  77; 6HR PCP: TRACE;

LONGVIEW       CLOUDY    75  65  70 SE12      29.91S
6HR MIN TEMP:  75; 6HR MAX TEMP:  80;

MARSHALL       CLOUDY    75  58  55 S3        29.94F
6HR MIN TEMP:  75; 6HR MAX TEMP:  79;

ATHENS         CLOUDY    70  64  83 SE8       29.88R FOG
PALESTINE      CLOUDY    71  68  90 E7        29.89S FOG
JACKSONVILLE   CLOUDY    70  67  88 E7        29.92F FOG
HENDERSON      CLOUDY    73  64  73 SE9       29.92S
6HR MIN TEMP:  73; 6HR MAX TEMP:  77;

CENTER         CLOUDY    78  67  68 SE8       29.94F
6HR MIN TEMP:  78; 6HR MAX TEMP:  84;

NACOGDOCHES    MOCLDY    73  64  73 SE10      29.89F
6HR MIN TEMP:  72; 6HR MAX TEMP:  73;

LUFKIN         MOCLDY    73  65  75 SE9       29.89F
6HR MIN TEMP:  72; 6HR MAX TEMP:  75;

$$

SUPPLEMENTAL OBSERVATIONS (CENTRAL)

CITY           SKY/WX    TMP DP  RH WIND       PRES   REMARKS
$$

SUPPLEMENTAL OBSERVATIONS (WEST)

CITY           SKY/WX    TMP DP  RH WIND       PRES   REMARKS
$$

SUPPLEMENTAL OBSERVATIONS (EAST)

CITY           SKY/WX    TMP DP  RH WIND       PRES   REMARKS
$$

SUPPLEMENTAL OBSERVATIONS ARE A COLLECTION OF AUTOMATED INSTRUMENTS
THAT ARE MAINTAINED BY A VARIETY OF FEDERAL AND STATE AGENCIES.
CERTAIN ELEMENTS...SUCH AS HUMIDITY VALUES AND SUSTAINED WIND
SPEEDS...MAY BE APPROXIMATED.





USA.gov is the U.S. government's official web portal to all federal, state and local government web resources and services.